Home   Weather   Spiez   Past weeks

Flag for Switzerland Past Weather in Spiez, Bern, Switzerland — Yesterday and Last 2 Weeks

Now
65 °F

Mild.


Feels Like: 65 °F
Forecast: 50 / 68 °F
Wind: 5 mph from Southwest

Location: Interlaken

Current Time: Sep 25, 2016 at 7:39:33 PM

Latest Report: Sep 25, 2016 at 7:00 PM


Visibility: N/A

Pressure: 30.10 "Hg (28.03 "Hg at 607m altitude)

Humidity: 76%

Dew Point: 57 °F

Location of SpiezLocation

Past Weather in Spiez — Graph

°F

Spiez Temperature Yesterday

Maximum temperature yesterday: 70 °F (at 5:00 PM)
Minimum temperature yesterday: 50 °F (at 6:00 AM)
Average temperature yesterday: 58 °F

High & Low Weather Summary for the Past Weeks

 TemperatureHumidityPressure
High79 °F (Sep 13, 4:00 PM)100% (Sep 16, 9:00 PM)30.32 "Hg (Sep 16, 9:00 PM)
Low48 °F (Sep 22, 7:00 AM)49% (Sep 14, 1:00 PM)29.78 "Hg (Sep 15, 6:00 AM)
Average60 °F83%30.04 "Hg
* Reported Sep 10 6:00 PM — Sep 25 6:00 PM, Spiez, Weather by CustomWeather, © 2016

Note: Actual official high and low records may vary slightly from our data, if they occured in-between our weather recording intervals... More about our weather records

Advertising

Spiez Weather History for the Previous 24 Hours

Scroll right to see more
 ConditionsComfort  
Time TempWeatherWind HumidityBarometerVisibility
6:00 PM
Sun, Sep 25
69 °FMild.5 mph60%30.07 "HgN/A
5:00 PM69 °FMild.5 mph61%30.06 "HgN/A
4:00 PM71 °FMild.9 mph56%30.05 "HgN/A
3:00 PM70 °FMild.6 mph58%30.06 "HgN/A
2:00 PM68 °FMild.3 mph61%30.09 "HgN/A
1:00 PM64 °FMild.3 mph65%30.12 "HgN/A
12:00 PM61 °FCool.6 mph70%30.15 "HgN/A
11:00 AM58 °FCool.2 mph84%30.18 "HgN/A
10:00 AM53 °FCool.No wind93%30.21 "HgN/A
9:00 AM50 °FCool.1 mph92%30.23 "HgN/A
8:00 AM49 °FCool.1 mph94%30.23 "HgN/A
7:00 AM50 °FCool.2 mph93%30.22 "HgN/A
6:00 AM50 °FCool.2 mph93%30.22 "HgN/A
5:00 AM50 °FCool.1 mph94%30.23 "HgN/A
4:00 AM51 °FCool.1 mph94%30.23 "HgN/A
3:00 AM51 °FCool.1 mph94%30.23 "HgN/A
2:00 AM52 °FCool.2 mph92%30.23 "HgN/A
1:00 AM53 °FCool.2 mph92%30.22 "HgN/A
12:00 AM54 °FCool.1 mph91%30.22 "HgN/A
11:00 PM
Sat, Sep 24
56 °FCool.2 mph88%30.22 "HgN/A
10:00 PM56 °FCool.1 mph91%30.22 "HgN/A
9:00 PM57 °FCool.2 mph91%30.20 "HgN/A
8:00 PM59 °FCool.3 mph85%30.19 "HgN/A
7:00 PM62 °FCool.5 mph81%30.18 "HgN/A
Weather by CustomWeather, © 2016

See weather overviewHow to use our weather pages